Content
SEND FEEDBACK

Daily
Averages
Monthly
Summary
United States of America

BOTHELL, WASHINGTON


Home > North America > United States > Washington
Elevation: 100 feet     Latitude: 47 47N     Longitude: 122 13W

WEATHER
 
SELECT A DAY
Number of Records: 202,980;   Date Range: 1/1/95 - 7/23/14
 
SHARE

PRINT THIS DATA

[ ← Previous Day ]
WEATHER ALMANAC - JANUARY 31, 2013
[ Next Day → ]
[ °C ]   °F
Weather ElementAverageHighLow
Temperature46.6 °F48.2 °F (1:00 pm)44.6 °F (3:10 am)
Dewpoint43.8 °F44.6 °F (12:36 am)42.1 °F (2:53 pm)
Humidity90 %100 % (3:10 am)80 % (2:53 pm)
Barometer30.34 in30.39 in (1:53 am)30.30 in (2:53 pm)
Wind Speed6.8 mph17.3 mph (11:53 am)
Wind Gust23 mph (12:53 pm)
Weather ElementAverage
Visibility6.3 mi
Wind DirectionSE (131.3 °)

Weather ElementTotal
Precipitation0.16 in
Heating Degree Days18.6 (Base 65)
Averaged from 53 records on January 31, 2013
WEATHER CONDITIONS BREAKOUT
WIND DIRECTION BREAKOUT
WEATHER BY HOUR - JANUARY 31, 2013
[ °C ]   °F
Local TimeTemperatureDewpointHumidityBarometerVisibilityWind DirectionWind SpeedGust SpeedPrecipitationEventsConditions
12:36 AM46.4 °F44.6 °F93 %30.37 in0.8 miCalm0.01 inOvercast
12:42 AM46.4 °F44.6 °F93 %30.37 in1.0 miCalm0.01 inOvercast
12:53 AM46.0 °F44.1 °F93 %30.38 in1.0 miCalm0.02 inRainLight Rain
1:02 AM46.4 °F44.6 °F93 %30.37 in1.8 miCalm0.00 inRainLight Rain
1:07 AM46.4 °F44.6 °F93 %30.37 in2.0 miCalm0.00 inOvercast
1:21 AM46.4 °F44.6 °F93 %30.38 in3.0 miCalm0.00 inRainLight Rain
1:31 AM46.4 °F44.6 °F93 %30.38 in2.5 miCalm0.01 inRainLight Rain
1:36 AM46.4 °F44.6 °F93 %30.38 in4.0 miCalm0.01 inRainLight Rain
1:53 AM46.0 °F44.1 °F93 %30.39 in5.0 miCalm0.01 inRainLight Rain
2:14 AM46.4 °F44.6 °F93 %30.38 in4.0 miSouth (180°)5.8 mph0.01 inOvercast
2:17 AM46.4 °F42.8 °F87 %30.38 in1.5 miSouth (170°)6.9 mph0.01 inOvercast
2:27 AM46.4 °F44.6 °F93 %30.38 in0.5 miSSW (210°)3.5 mph0.01 inFogFog
2:53 AM46.0 °F44.1 °F93 %30.39 in1.0 miSouth (190°)4.6 mph0.01 inOvercast
3:03 AM46.4 °F44.6 °F93 %30.38 in2.0 miSSW (200°)3.5 mphOvercast
3:10 AM44.6 °F44.6 °F100 %30.38 in6.0 miSSW (200°)3.5 mphOvercast
3:19 AM44.6 °F44.6 °F100 %30.38 in8.0 miSouth (180°)4.6 mphOvercast
3:53 AM46.0 °F44.1 °F93 %30.39 in7.0 miSSW (210°)5.8 mph0.00 inOvercast
4:53 AM46.0 °F44.1 °F93 %30.38 in3.0 miSouth (170°)5.8 mph0.00 inOvercast
5:53 AM46.0 °F44.1 °F93 %30.38 in4.0 miSouth (180°)5.8 mphOvercast
6:53 AM46.0 °F44.1 °F93 %30.37 in2.0 miSouth (170°)9.2 mph0.01 inOvercast
7:32 AM46.4 °F42.8 °F87 %30.36 in7.0 miSouth (170°)11.5 mphOvercast
7:53 AM46.0 °F43.0 °F89 %30.37 in10.0 miSouth (170°)10.4 mphOvercast
8:53 AM46.0 °F44.1 °F93 %30.36 in7.0 miSouth (180°)10.4 mphOvercast
9:05 AM46.4 °F42.8 °F87 %30.35 in8.0 miSouth (170°)10.4 mph0.00 inRainLight Rain
9:14 AM46.4 °F42.8 °F87 %30.35 in8.0 miSouth (170°)11.5 mph0.00 inRainLight Rain
9:53 AM46.0 °F43.0 °F89 %30.35 in9.0 miSouth (170°)12.7 mph0.00 inRainLight Rain
10:53 AM46.0 °F43.0 °F89 %30.35 in8.0 miSouth (170°)11.5 mph0.01 inRainLight Rain
11:15 AM46.4 °F42.8 °F87 %30.35 in10.0 miSSE (160°)11.5 mph0.01 inOvercast
11:22 AM46.4 °F42.8 °F87 %30.35 in10.0 miSSE (160°)10.4 mph0.01 inOvercast
11:53 AM46.0 °F43.0 °F89 %30.34 in10.0 miSSE (160°)17.3 mph0.01 inOvercast
12:00 PM46.4 °F42.8 °F87 %30.32 in10.0 miSouth (170°)16.1 mphOvercast
12:29 PM46.4 °F42.8 °F87 %30.32 in10.0 miSouth (170°)13.8 mph20.7 mphMostly Cloudy
12:53 PM48.0 °F43.0 °F83 %30.32 in10.0 miSouth (170°)15.0 mph23.0 mphMostly Cloudy
1:00 PM48.2 °F42.8 °F82 %30.31 in10.0 miSSE (160°)15.0 mph21.9 mphMostly Cloudy
1:53 PM48.0 °F43.0 °F83 %30.31 in10.0 miSouth (180°)15.0 mphOvercast
2:53 PM48.0 °F42.1 °F80 %30.30 in10.0 miSouth (180°)12.7 mphOvercast
3:00 PM48.2 °F42.8 °F82 %30.30 in10.0 miSouth (170°)10.4 mphOvercast
3:48 PM48.2 °F42.8 °F82 %30.30 in10.0 miSouth (180°)12.7 mphOvercast
3:53 PM48.0 °F42.1 °F80 %30.30 in10.0 miSouth (170°)11.5 mphOvercast
4:53 PM48.0 °F43.0 °F83 %30.31 in10.0 miSSE (160°)10.4 mphOvercast
5:53 PM46.9 °F43.0 °F86 %30.31 in10.0 miSouth (170°)6.9 mphOvercast
6:35 PM46.4 °F44.6 °F93 %30.30 in10.0 miSSE (160°)8.1 mphOvercast
6:53 PM46.9 °F44.1 °F90 %30.31 in10.0 miSouth (170°)6.9 mphOvercast
7:01 PM46.4 °F44.6 °F93 %30.30 in10.0 miSouth (170°)5.8 mphOvercast
7:53 PM46.9 °F44.1 °F90 %30.31 in8.0 miSouth (180°)6.9 mphOvercast
8:53 PM46.9 °F44.1 °F90 %30.32 in8.0 miSSE (150°)4.6 mphOvercast
9:00 PM46.4 °F44.6 °F93 %30.31 in7.0 miSSE (160°)4.6 mphOvercast
9:16 PM46.4 °F44.6 °F93 %30.31 in5.0 miSouth (170°)3.5 mphOvercast
9:53 PM46.4 °F44.6 °F93 %30.31 in5.0 miSouth (180°)3.5 mphOvercast
10:53 PM46.9 °F44.1 °F90 %30.32 in4.0 miCalmOvercast
11:17 PM46.4 °F44.6 °F93 %30.32 in4.0 miCalmOvercast
11:35 PM46.4 °F44.6 °F93 %30.32 in4.0 miCalmOvercast
11:53 PM46.9 °F44.1 °F90 %30.34 in3.0 miCalmOvercast
Hourly data recorded from KPAE, located miles away from Bothell, Washington







STORIES FROM OUR PARTNERS